カタログに戻る

APRIZESAT 8

運用中通信SSO
NORAD 39425·PAYLOAD·🇺🇸 United States

打ち上げ Nov 21, 2013 から Dombarovsky

Loading…

次のパス (今後24時間)

TLE

最新Source: Space-Track

元期: Sep 14, 2026, 07:49 UTC

1 39425U 13066K   26257.32592225  .00000888  00000-0  10168-3 0  9994
2 39425  97.8293 203.5860 0045677 354.5808   5.4908 14.87793278692929

AllMySatでAPRIZESAT 8をリアルタイム追跡

Download on the App Store